THOR ABLESTAR DEB, 121

Orbit data source: Space-Track

THOR ABLESTAR DEB, 121 is space debris in LEO originally from a launch on Thu, 29 Jun 1961 UTC launched from the Air Force Eastern Test Range (AFETR). Debris objects in space refer to the collection of defunct objects orbiting the Earth. Examples of debris include non-operational satellites, rocket bodies, and fragments generated from explosions, collisions, or faulty payload assembly.

Loading next visibility...
THOR ABLESTAR DEB details
Identifier
121, 1961-015F
Orbit
LEO
Last TLE update2 days ago
Origin
Flag of USUSAF SSD (US)
ManufacturerUnknown
MissionSpacecraft
Bus & MotorUnknown
MassUnknown
Launch date (UTC)
1961-06-29 (64 years ago)
Launch vehicleUnknown
Launch site
Air Force Eastern Test Range (AFETR)
Object type
Payload
Rocket body
Debris
Shape & HBRUnknown
Radar Cross SectionMedium (>0.1 m² and <1 m²)

Expand to show TLE details & history

TLE from 2 days ago
0 THOR ABLESTAR DEB
1 00121U 61015F   25022.01719608  .00000114  00000-0  12619-3 0  9998
2 00121  66.7457 232.0926 0093285 358.0629   2.0079 14.00091153254806
Epoch: 2025-01-22T00:24Z
Definitive object data (Epoch: 2025-01-22T00:24:45.741Z)
Latitude
Longitude104.2869°
Altitude827.762 km
Speed7.474 km/s
True Right ascension15h 28m 22s
True Declination0° 00' 00"
Sunlit
Object was in daylight at TLE epoch
Visualization TLE readout
Latitude62.44885°
Longitude-134.69268°
Altitude924.27 km
Speed7.385 km/s
Apparent Right ascension02h 07m 22s
Apparent Declination18° 38' 16"
Sunlit
Object is in daylight
Visualization observer readout
Local Sidereal Time15:49:51
Azimuth27.314° NE
Elevation-26.759°
Doppler factor1
Orbital elements
Apogee altitude959.69 km
Perigee altitude824.054 km
Semi-major axis7,270.009 km
Eccentricity0.0093285
Inclination66.7457°
RAAN232.0926°
Arg. of periapsis358.0629°
True anomaly2.0458°
Mean anomaly2.0079°
Eccentric anomaly2.0268°
Mean motion3.50139 °/min
BSTAR0.00012619
Orbital period102.82 mins
Loading maneuver chart data...

THOR ABLESTAR DEB Visibility forecast

Observer location: undefined°, undefined

Span
Click to sort rows by Start time (UTC) header in descending order
Start Az.
Max El. time (UTC)
Max El. Az.
Max El.
End time (UTC)
End Az.
10 mins2025-01-23 15:59:35.870Z235.974° WSW2025-01-23 16:04:35.870Z316.591° NNW34.868°2025-01-23 16:09:35.870Z17.492° NNE
9 mins2025-01-23 23:14:35.870Z359.229° N2025-01-23 23:18:35.870Z53.161° ENE26.197°2025-01-23 23:23:35.870Z108.256° ESE
10 mins2025-01-24 00:59:35.870Z317.228° NNW2025-01-24 01:04:35.870Z239.021° WSW37.712°2025-01-24 01:09:35.870Z175.619° S
8 mins2025-01-24 14:15:35.870Z164.699° S2025-01-24 14:19:35.870Z100.276° ESE29.234°2025-01-24 14:23:35.870Z49.859° ENE
|